[[{"header":{"parameterUnit":"m.s-1","parameterCategory":2,"la1":30.2991,"la2":30.254,"lo1":-89.0895,"lo2":-89.0444,"dy":0.0017,"dx":0.0017,"nx":28,"ny":28,"refTime":"2025-01-01T03:00:00:Z","depth":"0","parameterNumber":2,"parameterNumberName":"U-component_of_CURRENTS"},"data":[0,0,0,0,0,0,0,0,0,0,0,0,0,0,0,0,0,0,0,0,0,0,0,0,0,0,0,0,0,0,0,0,0,0,0,0,0,0,0,0,0,0,0,0,0,0,0,0,0,0,0,0,0,0,0,0,0,0,0.3225,0.3226,0,0.3266,0.3266,0.3266,0.3276,0.3276,0.3277,0.3277,0.3272,0.3272,0.3272,0,0,0,0,0,0,0,0,0,0,0,0,0,0.3142,0.3143,0.3225,0.3226,0.3227,0.3266,0.3266,0.3266,0.3276,0.3276,0.3277,0.3277,0.3273,0.3272,0.3272,0,0,0,0,0,0,0,0,0,0,0,0,0,0.3176,0.3144,0.3224,0.324,0.3242,0.3266,0.3266,0.3266,0.3276,0.3276,0.3277,0.3277,0.3273,0.3272,0.3272,0.3264,0,0,0.3271,0.327,0,0,0,0,0,0,0,0,0.3174,0.3178,0.3237,0.3239,0.3241,0.327,0.3236,0.3265,0.3276,0.3258,0.3277,0.3277,0.3271,0.327,0.3271,0.3264,0.3264,0.3271,0.327,0.327,0.327,0,0,0,0,0,0,0,0.3171,0.3176,0.3236,0.3238,0.3241,0.3241,0.3245,0.3241,0.3258,0.326,0.3262,0.3274,0.3271,0.3272,0.3271,0.3263,0.3271,0.327,0.327,0.327,0.33,0.3301,0,0,0,0,0,0,0.3177,0.3174,0.3235,0.3238,0.3213,0.3243,0.3247,0.3257,0.3259,0.3261,0.3274,0.3274,0.3272,0.3272,0.3271,0.3309,0.327,0.327,0.3269,0.3299,0.3301,0.3302,0,0,0,0,0,0,0.3175,0.3181,0.3233,0.3211,0.3218,0.3244,0.3254,0.3258,0.3266,0.3271,0.3271,0.328,0.3272,0.3272,0.3276,0.3307,0.327,0.3269,0.3298,0.33,0.3301,0.3354,0,0,0,0,0,0,0.3172,0.318,0.3188,0.3211,0.322,0.3253,0.3255,0.3259,0.3275,0.3276,0.3276,0.3276,0.3273,0.3277,0.3276,0.3306,0.3269,0.3297,0.3299,0.3301,0.3351,0.3357,0.3363,0,0,0,0,0,0.3169,0.3166,0.3188,0.3196,0.323,0.3254,0.3258,0.3274,0.3275,0.328,0.3282,0.3276,0.3289,0.3277,0.3275,0.3306,0.3296,0.3298,0.3301,0.3348,0.3356,0.3363,0,0,0,0,0,0,0.3113,0.3169,0.3192,0.3202,0.3236,0.3258,0.3259,0.3276,0.3282,0.3278,0.328,0.3279,0.3303,0.329,0.3277,0.3322,0.3296,0.3298,0.3333,0.334,0.3345,0.3352,0.3268,0,0,0,0,0,0.3114,0.3134,0.3185,0.3189,0.3208,0.3237,0.3249,0.3265,0.3276,0.3279,0.3288,0.3294,0.3311,0.3312,0.3322,0.3331,0.334,0.3354,0.3359,0.3364,0.337,0.3426,0.3438,0.331,0.331,0.331,0,0,0.3091,0.3124,0.3134,0.3182,0.3202,0.3235,0.3243,0.3259,0.3288,0.3276,0.3303,0.3315,0.332,0.3345,0.3354,0.3337,0.3402,0.3368,0.3372,0.3374,0.343,0.3443,0.3454,0.3311,0.3311,0.3311,0,0,0.306,0.3089,0.3107,0.3144,0.3192,0.3218,0.3229,0.3268,0.3287,0.3312,0.3326,0.3354,0.3361,0.3388,0.3397,0.3437,0.3437,0.344,0.3469,0.3525,0.3536,0.3546,0.3559,0.357,0.3437,0.3437,0.3437,0,0.3035,0.3073,0.3111,0.3144,0.3178,0.3216,0.3248,0.3273,0.331,0.3337,0.3323,0.3386,0.3387,0.3445,0.3459,0.3453,0.3468,0.3442,0.3534,0.3544,0.3554,0.3564,0.3576,0.344,0.344,0.3439,0.3439,0,0.3035,0.3072,0.3078,0.3149,0.3183,0.321,0.3269,0.3302,0.3328,0.3365,0.3427,0.3439,0.3481,0.349,0.348,0.3558,0.3541,0.3542,0.3518,0.357,0.3577,0.3588,0.3444,0.3443,0.3442,0.3442,0,0,0.2958,0.3066,0.3066,0.311,0.3195,0.3215,0.3276,0.3349,0.3393,0.3434,0.3496,0.3535,0.3557,0.357,0.3581,0.3619,0.3688,0.3604,0.3606,0.3619,0.3788,0.3728,0.3734,0.3712,0.3714,0.3716,0.376,0,0.2953,0.3017,0.3076,0.3132,0.3177,0.3248,0.3302,0.3369,0.3425,0.3492,0.3539,0.3592,0.3585,0.3607,0.3653,0.3691,0.3722,0.3674,0.3733,0.3733,0.3678,0.3747,0.3655,0.3684,0.3771,0.3773,0.3774,0,0.2937,0.2991,0.3048,0.3154,0.3177,0.3212,0.3313,0.3369,0.348,0.3526,0.3605,0.3648,0.3728,0.37,0.3801,0.3774,0.3783,0.3797,0.3799,0.3735,0.3696,0.3649,0.37,0.3653,0.379,0.3789,0.3788,0,0.2864,0.2966,0.3011,0.3047,0.3166,0.3199,0.326,0.3371,0.3443,0.3551,0.3616,0.3713,0.3766,0.3819,0.386,0.384,0.3951,0.3928,0.3879,0.3873,0.38,0.3784,0.3815,0.399,0.399,0.3989,0.3989,0,0.2837,0.287,0.2976,0.2998,0.3054,0.3148,0.3219,0.3299,0.3434,0.3505,0.3625,0.3698,0.3802,0.3882,0.3895,0.393,0.3988,0.3899,0.3896,0.3812,0.3797,0.3754,0.3726,0.3991,0.3991,0.399,0.399,0,0.2748,0.2821,0.2875,0.2986,0.302,0.305,0.3198,0.3252,0.3392,0.3492,0.3533,0.3718,0.3808,0.3897,0.3978,0.397,0.3908,0.3989,0.3861,0.3843,0.3727,0.3703,0.357,0.3451,0.3942,0.3941,0.394,0,0.2716,0.2733,0.2834,0.2858,0.2903,0.2978,0.3029,0.3194,0.3263,0.3479,0.3513,0.3676,0.3758,0.3894,0.3925,0.3963,0.3856,0.3863,0.3806,0.3723,0.3697,0.3547,0.3444,0.3723,0.372,0.3718,0.3717,0,0.2653,0.2677,0.2719,0.277,0.2811,0.2872,0.296,0.3023,0.3191,0.3298,0.3426,0.3528,0.3702,0.3735,0.3821,0.3825,0.3705,0.3818,0.3788,0.3577,0.3362,0.3244,0.3665,0.3698,0.37,0.3702,0.3703,0.3703,0.2592,0.2596,0.2641,0.2674,0.2719,0.274,0.2748,0.2857,0.2951,0.3079,0.324,0.3356,0.3543,0.3677,0.3657,0.3625,0.3565,0.3543,0.3535,0.34,0.324,0.3596,0.3592,0.3594,0.3595,0.3596,0.3596,0,0.2504,0.2519,0.2551,0.2576,0.2563,0.2623,0.2677,0.2667,0.2703,0.2881,0.2984,0.3189,0.3292,0.3425,0.3512,0.3402,0.3228,0.3306,0.3109,0.3029,0.3423,0.3373,0.3253,0.3253,0.3253,0.3253,0.3253,0.3253,0.2461,0.2442,0.2454,0.2404,0.2412,0.2354,0.2344,0.2361,0.2461,0.2579,0.2711,0.2872,0.3223,0.3431,0.3402,0.3301,0.3038,0.2899,0.285,0.3202,0.3224,0.3245,0.3194,0.3038,0.3037,0.2342,0.2337,0.2333]},{"header":{"parameterUnit":"m.s-1","parameterCategory":2,"la1":30.2991,"la2":30.254,"lo1":-89.0895,"lo2":-89.0444,"dy":0.0017,"dx":0.0017,"nx":28,"ny":28,"refTime":"2025-01-01T03:00:00:Z","depth":"0","parameterNumber":3,"parameterNumberName":"V-component_of_CURRENTS"},"data":[0,0,0,0,0,0,0,0,0,0,0,0,0,0,0,0,0,0,0,0,0,0,0,0,0,0,0,0,0,0,0,0,0,0,0,0,0,0,0,0,0,0,0,0,0,0,0,0,0,0,0,0,0,0,0,0,0,0,-0.0392,-0.0393,0,-0.0458,-0.0459,-0.0459,-0.0504,-0.0505,-0.0505,-0.0505,-0.0597,-0.06,-0.0602,0,0,0,0,0,0,0,0,0,0,0,0,0,-0.0347,-0.0347,-0.0392,-0.0393,-0.0394,-0.0458,-0.0459,-0.046,-0.0504,-0.0505,-0.0505,-0.0506,-0.0597,-0.0599,-0.0602,0,0,0,0,0,0,0,0,0,0,0,0,0,-0.0384,-0.0347,-0.0392,-0.0424,-0.0428,-0.0458,-0.0459,-0.046,-0.0504,-0.0505,-0.0505,-0.0506,-0.0596,-0.0599,-0.0602,-0.061,0,0,-0.0612,-0.0613,0,0,0,0,0,0,0,0,-0.0382,-0.0386,-0.0419,-0.0422,-0.0426,-0.0474,-0.0477,-0.0511,-0.0504,-0.0474,-0.0505,-0.0506,-0.0559,-0.0565,-0.0575,-0.0614,-0.0618,-0.0612,-0.0614,-0.0615,-0.0616,0,0,0,0,0,0,0,-0.0379,-0.0383,-0.0417,-0.0419,-0.0424,-0.045,-0.0456,-0.0484,-0.0512,-0.0477,-0.0481,-0.0489,-0.0561,-0.0571,-0.0577,-0.0619,-0.0612,-0.0615,-0.0617,-0.0618,-0.0676,-0.0676,0,0,0,0,0,0,-0.037,-0.0381,-0.0415,-0.0419,-0.0406,-0.045,-0.0456,-0.0458,-0.0512,-0.052,-0.0488,-0.0491,-0.0566,-0.0573,-0.0581,-0.0587,-0.0615,-0.0618,-0.062,-0.0676,-0.0676,-0.0676,0,0,0,0,0,0,-0.0368,-0.0372,-0.0413,-0.0403,-0.041,-0.045,-0.0451,-0.0459,-0.0469,-0.052,-0.0529,-0.0492,-0.0567,-0.0576,-0.0599,-0.0591,-0.062,-0.0622,-0.0677,-0.0676,-0.0676,-0.0603,0,0,0,0,0,0,-0.0367,-0.0371,-0.0367,-0.0402,-0.041,-0.0418,-0.0451,-0.0459,-0.0474,-0.0478,-0.0526,-0.0535,-0.0568,-0.0594,-0.0602,-0.0596,-0.0625,-0.0677,-0.0676,-0.0676,-0.0606,-0.06,-0.0596,0,0,0,0,0,-0.0365,-0.0344,-0.0366,-0.0371,-0.0404,-0.0417,-0.0423,-0.0455,-0.0473,-0.0468,-0.0504,-0.0534,-0.0596,-0.0596,-0.0606,-0.06,-0.0677,-0.0677,-0.0676,-0.0609,-0.0602,-0.0596,0,0,0,0,0,0,-0.0311,-0.0348,-0.0373,-0.0363,-0.0388,-0.0425,-0.0421,-0.0449,-0.0473,-0.0474,-0.0528,-0.0539,-0.0559,-0.0587,-0.0586,-0.0616,-0.0642,-0.0644,-0.0588,-0.0582,-0.0577,-0.0551,-0.0627,0,0,0,0,0,-0.0301,-0.0301,-0.0342,-0.0333,-0.0343,-0.0384,-0.0394,-0.0415,-0.0443,-0.0454,-0.0492,-0.053,-0.0563,-0.0577,-0.061,-0.0621,-0.0641,-0.0625,-0.062,-0.0615,-0.0601,-0.0635,-0.0631,-0.0673,-0.0673,-0.0673,0,0,-0.0278,-0.0298,-0.0298,-0.0323,-0.0344,-0.0343,-0.039,-0.0393,-0.0393,-0.046,-0.0468,-0.0514,-0.0563,-0.0579,-0.059,-0.06,-0.061,-0.0614,-0.061,-0.0598,-0.0634,-0.063,-0.0626,-0.0673,-0.0673,-0.0673,0,0,-0.0224,-0.0248,-0.0233,-0.025,-0.0277,-0.0302,-0.0302,-0.0339,-0.0356,-0.0372,-0.0424,-0.0461,-0.0505,-0.0541,-0.0564,-0.0548,-0.0584,-0.0563,-0.0511,-0.0544,-0.0541,-0.0538,-0.0538,-0.0536,-0.0556,-0.0556,-0.0555,0,-0.0194,-0.0185,-0.0228,-0.0217,-0.0221,-0.028,-0.0259,-0.0284,-0.0324,-0.0334,-0.0361,-0.0437,-0.0485,-0.0509,-0.0508,-0.0536,-0.0549,-0.053,-0.0536,-0.0534,-0.0532,-0.0533,-0.0532,-0.0552,-0.0552,-0.0553,-0.0553,0,-0.0137,-0.013,-0.0116,-0.0128,-0.0137,-0.0125,-0.0167,-0.0178,-0.0212,-0.0247,-0.0281,-0.0351,-0.0393,-0.0422,-0.0461,-0.0477,-0.0486,-0.0528,-0.0548,-0.0523,-0.0526,-0.0526,-0.0547,-0.0548,-0.0549,-0.055,0,0,-0.0062,-0.0075,-0.0069,-0.006,-0.0088,-0.0082,-0.0082,-0.01,-0.0091,-0.0154,-0.0151,-0.0234,-0.0282,-0.0312,-0.0375,-0.0411,-0.0418,-0.0457,-0.046,-0.0447,-0.0463,-0.0465,-0.0466,-0.0462,-0.0462,-0.0462,-0.0461,0,-0.0003,0.0039,0.0012,0.0056,0.0075,0.0028,0.0039,0.0014,-0.0023,-0.0036,-0.0124,-0.0151,-0.0237,-0.0256,-0.0306,-0.0391,-0.0417,-0.0412,-0.0496,-0.0498,-0.0496,-0.0466,-0.0452,-0.0451,-0.0462,-0.0462,-0.0462,0,0.0063,0.0081,0.0133,0.015,0.0155,0.017,0.0178,0.0177,0.0133,0.0103,0.0048,-0.0019,-0.0083,-0.0162,-0.0278,-0.027,-0.0353,-0.0423,-0.0425,-0.0452,-0.05,-0.0483,-0.045,-0.0625,-0.0462,-0.0462,-0.0462,0,0.014,0.0169,0.0215,0.022,0.0227,0.0246,0.0246,0.0221,0.0243,0.0188,0.02,0.0096,0.007,-0.0062,-0.021,-0.0241,-0.0328,-0.0393,-0.0468,-0.0468,-0.0483,-0.0485,-0.0624,-0.0467,-0.0467,-0.0467,-0.0467,0,0.0214,0.0253,0.0256,0.0283,0.0354,0.0322,0.0387,0.0365,0.0363,0.0405,0.0278,0.03,0.0092,0.0013,-0.015,-0.0289,-0.0281,-0.044,-0.0468,-0.0456,-0.0455,-0.0632,-0.0751,-0.0467,-0.0467,-0.0467,-0.0467,0,0.0291,0.029,0.0349,0.0372,0.0392,0.0438,0.0492,0.0535,0.051,0.0563,0.0557,0.0474,0.0366,0.0167,-0.0024,-0.0181,-0.044,-0.0394,-0.0347,-0.0371,-0.0618,-0.0732,-0.0904,-0.0976,-0.0472,-0.0472,-0.0473,0,0.033,0.0369,0.0427,0.0476,0.0491,0.0556,0.0611,0.0609,0.0665,0.0681,0.0728,0.0647,0.0615,0.0343,0.0044,-0.0216,-0.0417,-0.0381,-0.0457,-0.0613,-0.0762,-0.0853,-0.0908,-0.044,-0.044,-0.044,-0.044,0,0.041,0.0429,0.0479,0.0583,0.065,0.0734,0.0809,0.0885,0.0894,0.0948,0.101,0.0988,0.0726,0.0479,0.0109,-0.0099,-0.0514,-0.0385,-0.0572,-0.0762,-0.0846,-0.0933,-0.0441,-0.0438,-0.0438,-0.0438,-0.0439,-0.0439,0.0472,0.0524,0.0595,0.0698,0.0781,0.0894,0.0981,0.1072,0.1187,0.1273,0.1241,0.1243,0.0858,0.036,0.006,-0.0477,-0.0509,-0.0651,-0.0774,-0.0849,-0.0937,-0.042,-0.0443,-0.0443,-0.0444,-0.0444,-0.0444,0,0.0548,0.0609,0.0707,0.0825,0.093,0.0957,0.1107,0.1198,0.1349,0.1437,0.149,0.1318,0.084,0.0329,-0.0387,-0.0781,-0.0947,-0.1016,-0.1159,-0.1195,-0.0749,-0.0766,-0.0829,-0.0829,-0.0828,-0.0828,-0.0828,-0.0828,0.059,0.0696,0.0745,0.0931,0.1018,0.1162,0.1252,0.1388,0.1491,0.1611,0.163,0.1607,0.123,-0.0075,-0.0969,-0.1192,-0.148,-0.156,-0.1698,-0.1421,-0.1396,-0.1373,-0.1416,-0.1614,-0.1615,-0.2077,-0.2082,-0.2086]}],[{"header":{"parameterUnit":"m.s-1","parameterCategory":2,"la1":30.2991,"la2":30.254,"lo1":-89.0895,"lo2":-89.0444,"dy":0.0017,"dx":0.0017,"nx":28,"ny":28,"refTime":"2025-01-01T03:00:00:Z","depth":"2","parameterNumber":2,"parameterNumberName":"U-component_of_CURRENTS"},"data":[0,0,0,0,0,0,0,0,0,0,0,0,0,0,0,0,0,0,0,0,0,0,0,0,0,0,0,0,0,0,0,0,0,0,0,0,0,0,0,0,0,0,0,0,0,0,0,0,0,0,0,0,0,0,0,0,0,0,0.2889,0.2889,0,0.294,0.2941,0.2941,0.2985,0.2986,0.2987,0.2987,0.3001,0.3,0.3,0,0,0,0,0,0,0,0,0,0,0,0,0,0.2822,0.2823,0.2889,0.2889,0.289,0.294,0.2941,0.2941,0.2985,0.2986,0.2987,0.2988,0.3001,0.3,0.3,0,0,0,0,0,0,0,0,0,0,0,0,0,0.2859,0.2823,0.2888,0.2919,0.2922,0.294,0.2941,0.2941,0.2985,0.2986,0.2987,0.2988,0.3001,0.3,0.3,0.2979,0,0,0.2999,0.2999,0,0,0,0,0,0,0,0,0.2857,0.2861,0.2914,0.2917,0.2921,0.2959,0.2922,0.2953,0.2985,0.296,0.2987,0.2988,0.2983,0.2984,0.2991,0.298,0.2981,0.2999,0.2999,0.2999,0.2999,0,0,0,0,0,0,0,0.2854,0.2859,0.2908,0.2915,0.2919,0.2928,0.2934,0.2928,0.2964,0.2962,0.2966,0.2973,0.2985,0.2991,0.2991,0.2981,0.2999,0.2999,0.2999,0.2998,0.3042,0.3043,0,0,0,0,0,0,0.285,0.2857,0.2906,0.2909,0.2892,0.2929,0.2936,0.2944,0.2965,0.297,0.2973,0.2975,0.2991,0.2991,0.2992,0.3042,0.2999,0.2998,0.2998,0.304,0.3042,0.3043,0,0,0,0,0,0,0.2848,0.2854,0.2904,0.2885,0.2892,0.2929,0.2939,0.2945,0.2962,0.2974,0.2978,0.2984,0.2992,0.2992,0.3006,0.304,0.2998,0.2998,0.3039,0.3041,0.3043,0.3095,0,0,0,0,0,0,0.2846,0.2853,0.2864,0.2885,0.2893,0.2925,0.2938,0.2945,0.2965,0.2969,0.2984,0.2986,0.2992,0.3007,0.3006,0.3039,0.2998,0.3037,0.304,0.3042,0.3092,0.3099,0.3105,0,0,0,0,0,0.2843,0.2846,0.2864,0.2871,0.2906,0.2925,0.2931,0.2959,0.2965,0.2976,0.2991,0.2986,0.3023,0.3007,0.3006,0.304,0.3036,0.3039,0.3042,0.3089,0.3097,0.3105,0,0,0,0,0,0,0.2804,0.2852,0.2872,0.2885,0.2912,0.2934,0.2946,0.2959,0.2978,0.2989,0.2991,0.2994,0.3028,0.3018,0.3,0.3061,0.3033,0.3036,0.307,0.3077,0.3084,0.3099,0.2997,0,0,0,0,0,0.2805,0.2831,0.2867,0.2876,0.2893,0.292,0.2933,0.2956,0.2974,0.2984,0.2999,0.3017,0.3037,0.3043,0.3061,0.3075,0.3079,0.31,0.3107,0.3112,0.3125,0.3167,0.3178,0.3053,0.3053,0.3053,0,0,0.279,0.282,0.2833,0.2873,0.2895,0.2925,0.293,0.2957,0.2986,0.298,0.3022,0.3039,0.3047,0.3084,0.3097,0.3079,0.3147,0.3116,0.3121,0.3131,0.3171,0.3183,0.3194,0.3055,0.3055,0.3055,0,0,0.2775,0.2803,0.2828,0.2858,0.2905,0.2928,0.2937,0.2977,0.3003,0.3037,0.3055,0.3088,0.3106,0.3133,0.3142,0.3187,0.3185,0.3197,0.3236,0.3276,0.3287,0.3297,0.3303,0.3313,0.3195,0.3195,0.3195,0,0.2762,0.2796,0.2833,0.2866,0.2895,0.293,0.2961,0.2988,0.3031,0.3059,0.306,0.3131,0.3134,0.3186,0.3213,0.3203,0.3217,0.3204,0.3285,0.3295,0.3304,0.3309,0.3319,0.3198,0.3197,0.3197,0.3197,0,0.2771,0.2807,0.2818,0.2885,0.2916,0.2945,0.2997,0.3037,0.307,0.3104,0.3173,0.3193,0.3239,0.3248,0.3243,0.3316,0.3302,0.3293,0.3265,0.332,0.3321,0.333,0.3202,0.3201,0.32,0.3199,0,0,0.2721,0.2814,0.2817,0.2856,0.2935,0.2955,0.3018,0.3081,0.3124,0.3181,0.324,0.3289,0.3319,0.3332,0.3343,0.3376,0.3441,0.3368,0.3368,0.3373,0.3519,0.347,0.3475,0.3455,0.3458,0.346,0.3489,0,0.2722,0.2783,0.2834,0.2889,0.2928,0.2994,0.3043,0.3109,0.3169,0.3235,0.3285,0.334,0.3344,0.3374,0.3418,0.3442,0.3473,0.3433,0.3466,0.3467,0.3417,0.3487,0.3229,0.3231,0.3498,0.3499,0.35,0,0.2715,0.2764,0.2818,0.2911,0.2932,0.2969,0.3066,0.3118,0.3222,0.3273,0.3357,0.3399,0.3475,0.346,0.3546,0.3526,0.3535,0.3542,0.3543,0.3489,0.3437,0.3223,0.3239,0.3516,0.3515,0.3514,0.3513,0,0.2657,0.2748,0.279,0.282,0.2926,0.2965,0.3023,0.3128,0.3195,0.3302,0.3365,0.3458,0.3515,0.3559,0.3599,0.358,0.3677,0.3642,0.36,0.3595,0.3378,0.335,0.3699,0.3699,0.3699,0.3698,0.3698,0,0.2634,0.2667,0.2765,0.2784,0.2839,0.2929,0.3001,0.3076,0.3206,0.3272,0.338,0.3451,0.355,0.362,0.363,0.3659,0.3706,0.3628,0.3615,0.3387,0.3361,0.3609,0.3598,0.3699,0.3699,0.3699,0.3699,0,0.2562,0.2625,0.2676,0.278,0.2812,0.2848,0.2988,0.3044,0.3173,0.327,0.331,0.3477,0.3556,0.3636,0.3705,0.3694,0.3714,0.3704,0.3421,0.3377,0.3587,0.3579,0.3653,0.3652,0.3651,0.365,0.3649,0,0.2534,0.2552,0.2646,0.2671,0.2716,0.2793,0.2845,0.3,0.3066,0.3261,0.3292,0.3443,0.3513,0.3627,0.3634,0.3654,0.3702,0.3408,0.3328,0.361,0.3591,0.3584,0.3577,0.3043,0.3038,0.3033,0.3029,0,0.248,0.2507,0.2546,0.2598,0.2645,0.2701,0.279,0.2846,0.3004,0.3101,0.3215,0.3302,0.3439,0.3371,0.3437,0.3405,0.3388,0.3317,0.3695,0.311,0.3042,0.3021,0.3033,0.2989,0.2993,0.2996,0.2998,0.3,0.243,0.2435,0.248,0.2516,0.2565,0.2586,0.2595,0.2693,0.2778,0.2876,0.3029,0.3065,0.3139,0.3121,0.3045,0.2997,0.322,0.3061,0.3072,0.3088,0.3029,0.2965,0.2883,0.2886,0.2889,0.2891,0.2894,0,0.2353,0.2369,0.2402,0.2428,0.2422,0.2485,0.2533,0.2511,0.2537,0.2659,0.2738,0.2577,0.2575,0.2636,0.2524,0.2553,0.2497,0.2429,0.2319,0.2364,0.2404,0.2304,0.1968,0.1965,0.1961,0.1958,0,0,0.2314,0.2299,0.2309,0.2268,0.2284,0.2234,0.2225,0.2213,0.2262,0.225,0.2259,0.2462,0.2581,0.2229,0.2209,0.2062,0.2184,0.1986,0.274,0.2657,0.2691,0.2797,0.2701,0,0,0,0,0]},{"header":{"parameterUnit":"m.s-1","parameterCategory":2,"la1":30.2991,"la2":30.254,"lo1":-89.0895,"lo2":-89.0444,"dy":0.0017,"dx":0.0017,"nx":28,"ny":28,"refTime":"2025-01-01T03:00:00:Z","depth":"2","parameterNumber":3,"parameterNumberName":"V-component_of_CURRENTS"},"data":[0,0,0,0,0,0,0,0,0,0,0,0,0,0,0,0,0,0,0,0,0,0,0,0,0,0,0,0,0,0,0,0,0,0,0,0,0,0,0,0,0,0,0,0,0,0,0,0,0,0,0,0,0,0,0,0,0,0,-0.0045,-0.0046,0,-0.0108,-0.0109,-0.0109,-0.0168,-0.0168,-0.0169,-0.0169,-0.0244,-0.0246,-0.0247,0,0,0,0,0,0,0,0,0,0,0,0,0,-0.0019,-0.0019,-0.0045,-0.0046,-0.0047,-0.0108,-0.0109,-0.011,-0.0167,-0.0168,-0.0169,-0.017,-0.0244,-0.0245,-0.0247,0,0,0,0,0,0,0,0,0,0,0,0,0,-0.0052,-0.0019,-0.0045,-0.0082,-0.0085,-0.0107,-0.0109,-0.011,-0.0167,-0.0168,-0.0169,-0.017,-0.0243,-0.0245,-0.0247,-0.0244,0,0,-0.0254,-0.0255,0,0,0,0,0,0,0,0,-0.005,-0.0053,-0.0076,-0.0079,-0.0083,-0.0129,-0.0127,-0.0155,-0.0167,-0.0138,-0.0169,-0.017,-0.0205,-0.0211,-0.0222,-0.0247,-0.025,-0.0254,-0.0256,-0.0257,-0.0257,0,0,0,0,0,0,0,-0.0048,-0.0051,-0.0072,-0.0076,-0.0081,-0.011,-0.0115,-0.0133,-0.0167,-0.014,-0.0144,-0.0149,-0.0208,-0.022,-0.0225,-0.0251,-0.0254,-0.0256,-0.0257,-0.0258,-0.0307,-0.0307,0,0,0,0,0,0,-0.0034,-0.0049,-0.007,-0.0073,-0.0067,-0.0109,-0.0115,-0.0115,-0.0167,-0.0175,-0.0148,-0.0151,-0.0216,-0.0222,-0.0227,-0.0234,-0.0257,-0.0259,-0.026,-0.0307,-0.0307,-0.0307,0,0,0,0,0,0,-0.0033,-0.0035,-0.0067,-0.0062,-0.0068,-0.0108,-0.0108,-0.0116,-0.0129,-0.0172,-0.0181,-0.0153,-0.0217,-0.0224,-0.0245,-0.0237,-0.026,-0.0262,-0.0307,-0.0307,-0.0307,-0.0242,0,0,0,0,0,0,-0.0032,-0.0034,-0.0034,-0.006,-0.0067,-0.0073,-0.0107,-0.0116,-0.013,-0.0135,-0.0179,-0.0187,-0.0218,-0.0241,-0.0247,-0.0241,-0.0263,-0.0307,-0.0307,-0.0307,-0.0245,-0.024,-0.0237,0,0,0,0,0,-0.0031,-0.0017,-0.0033,-0.0036,-0.0064,-0.0072,-0.0078,-0.0112,-0.0129,-0.0128,-0.0163,-0.0186,-0.0245,-0.0242,-0.0249,-0.0244,-0.0307,-0.0307,-0.0307,-0.0246,-0.0241,-0.0237,0,0,0,0,0,0,0.0001,-0.0023,-0.0041,-0.0034,-0.0051,-0.0081,-0.0085,-0.0104,-0.0131,-0.0141,-0.0181,-0.0191,-0.0208,-0.0234,-0.023,-0.026,-0.0282,-0.0283,-0.0233,-0.0229,-0.0225,-0.0208,-0.0265,0,0,0,0,0,0.0008,0.0007,-0.0018,-0.0012,-0.002,-0.0052,-0.0062,-0.0083,-0.0108,-0.0121,-0.0154,-0.0189,-0.0212,-0.0226,-0.0254,-0.0263,-0.0286,-0.0267,-0.0263,-0.0259,-0.0251,-0.0279,-0.0276,-0.0307,-0.0307,-0.0307,0,0,0.0022,0.0009,0.0008,-0.0007,-0.0026,-0.0022,-0.006,-0.007,-0.0067,-0.0124,-0.0135,-0.0174,-0.0212,-0.0228,-0.0238,-0.0249,-0.0262,-0.0259,-0.0255,-0.025,-0.0279,-0.0275,-0.0273,-0.0307,-0.0307,-0.0307,0,0,0.0058,0.0038,0.0048,0.0039,0.0017,-0.0001,0.0001,-0.0031,-0.0048,-0.0064,-0.0104,-0.0135,-0.0174,-0.0198,-0.0214,-0.0202,-0.0239,-0.0218,-0.0182,-0.0209,-0.0206,-0.0204,-0.0223,-0.0224,-0.0216,-0.0216,-0.0216,0,0.0072,0.0087,0.0052,0.0063,0.0064,0.0016,0.0035,0.0015,-0.002,-0.0026,-0.0061,-0.012,-0.0157,-0.0163,-0.017,-0.019,-0.0214,-0.0194,-0.0202,-0.0201,-0.02,-0.022,-0.0221,-0.0213,-0.0213,-0.0214,-0.0214,0,0.0117,0.0127,0.0136,0.0133,0.0129,0.0137,0.0109,0.0097,0.0064,0.0039,0.0012,-0.0048,-0.0082,-0.0104,-0.0137,-0.0146,-0.0167,-0.0191,-0.0209,-0.0192,-0.0215,-0.0217,-0.0209,-0.021,-0.0211,-0.0211,0,0,0.016,0.0165,0.017,0.0186,0.0166,0.0175,0.0177,0.0172,0.0183,0.0121,0.0128,0.0061,0.0014,-0.0008,-0.0058,-0.0092,-0.0112,-0.014,-0.0143,-0.0149,-0.017,-0.0189,-0.0194,-0.0142,-0.0142,-0.0143,-0.0186,0,0.0207,0.0251,0.0237,0.0283,0.0305,0.027,0.0286,0.0271,0.0238,0.0228,0.0155,0.0134,0.0057,0.0035,-0.0011,-0.0082,-0.0117,-0.0098,-0.0194,-0.0197,-0.0208,-0.0196,-0.0174,-0.0212,-0.0189,-0.0189,-0.0189,0,0.0259,0.0283,0.0335,0.0369,0.0375,0.0391,0.0407,0.0412,0.038,0.0351,0.0301,0.0242,0.0186,0.0113,-0.0,0.0012,-0.0074,-0.0138,-0.0142,-0.0182,-0.022,-0.0228,-0.0218,-0.0194,-0.0193,-0.0193,-0.0193,0,0.0317,0.0358,0.0405,0.0415,0.0438,0.0455,0.0461,0.0447,0.0472,0.0423,0.0429,0.0338,0.0306,0.0183,0.0037,0.0018,-0.0089,-0.0126,-0.0222,-0.0224,-0.0235,-0.0237,-0.0205,-0.0205,-0.0205,-0.0205,-0.0205,0,0.0379,0.0419,0.0436,0.0464,0.0533,0.0515,0.0575,0.0561,0.0564,0.0605,0.0494,0.0505,0.032,0.0234,0.008,-0.0071,-0.0055,-0.0209,-0.0235,-0.0212,-0.0212,-0.0223,-0.0224,-0.0207,-0.0206,-0.0206,-0.0206,0,0.0438,0.0446,0.0508,0.0542,0.0563,0.0606,0.0663,0.0706,0.0685,0.0733,0.0726,0.0644,0.0524,0.0339,0.0152,0.0007,-0.0149,-0.021,-0.0169,-0.019,-0.0278,-0.0275,-0.0313,-0.0314,-0.0314,-0.0315,-0.0316,0,0.047,0.0507,0.0572,0.0619,0.0637,0.07,0.0754,0.0763,0.0816,0.0826,0.0865,0.0769,0.0719,0.0438,0.0162,-0.0093,-0.0138,-0.0246,-0.0284,-0.0266,-0.0288,-0.0285,-0.0281,-0.0272,-0.0272,-0.0273,-0.0273,0,0.0536,0.0554,0.0607,0.0704,0.0769,0.0854,0.0925,0.0993,0.1011,0.1053,0.1088,0.1049,0.0779,0.0524,0.0163,-0.0018,-0.0208,-0.0258,-0.0243,-0.0249,-0.0232,-0.0253,-0.025,-0.0274,-0.0274,-0.0274,-0.0274,-0.0274,0.0585,0.0634,0.0703,0.08,0.0881,0.0986,0.1067,0.1147,0.1247,0.1304,0.1261,0.1201,0.0903,0.0449,0.0131,-0.0212,-0.0199,-0.0324,-0.0321,-0.0319,-0.0308,-0.0293,-0.0344,-0.0344,-0.0344,-0.0345,-0.0345,0,0.0648,0.0705,0.0796,0.0908,0.1005,0.1036,0.1174,0.125,0.137,0.141,0.1429,0.1152,0.0857,0.0507,0.0006,-0.0288,-0.0316,-0.0386,-0.0354,-0.035,-0.0347,-0.0336,-0.0381,-0.0382,-0.0382,-0.0383,0,0,0.0682,0.0778,0.0825,0.0992,0.1073,0.1208,0.1289,0.1393,0.1454,0.1495,0.1461,0.1383,0.0963,0.0601,0.0194,-0.0095,-0.0157,-0.0156,-0.0096,-0.0007,-0.0,-0.0281,-0.0256,0,0,0,0,0]}],[{"header":{"parameterUnit":"m.s-1","parameterCategory":2,"la1":30.2991,"la2":30.254,"lo1":-89.0895,"lo2":-89.0444,"dy":0.0017,"dx":0.0017,"nx":28,"ny":28,"refTime":"2025-01-01T03:00:00:Z","depth":"4","parameterNumber":2,"parameterNumberName":"U-component_of_CURRENTS"},"data":[0,0,0,0,0,0,0,0,0,0,0,0,0,0,0,0,0,0,0,0,0,0,0,0,0,0,0,0,0,0,0,0,0,0,0,0,0,0,0,0,0,0,0,0,0,0,0,0,0,0,0,0,0,0,0,0,0,0,0.1697,0.1698,0,0.1748,0.1748,0.1748,0.177,0.1771,0.1771,0.1772,0.1836,0.1837,0.1838,0,0,0,0,0,0,0,0,0,0,0,0,0,0.1592,0.1593,0.1697,0.1698,0.1699,0.1748,0.1748,0.1748,0.177,0.1771,0.1772,0.1772,0.1835,0.1837,0.1838,0,0,0,0,0,0,0,0,0,0,0,0,0,0.1634,0.1594,0.1697,0.1721,0.1724,0.1748,0.1748,0.1748,0.177,0.1771,0.1772,0.1772,0.1835,0.1837,0.1838,0.1834,0,0,0.1844,0.1845,0,0,0,0,0,0,0,0,0.1631,0.1637,0.1716,0.172,0.1723,0.1759,0.1734,0.178,0.177,0.1746,0.1772,0.1773,0.1815,0.1818,0.1817,0.1837,0.184,0.1844,0.1845,0.1846,0.1847,0,0,0,0,0,0,0,0.1628,0.1634,0.1711,0.1718,0.1722,0.172,0.1727,0.1742,0.1771,0.1748,0.1752,0.1767,0.1816,0.1815,0.1819,0.1841,0.1844,0.1846,0.1847,0.1848,0.1967,0.1969,0,0,0,0,0,0,0.1636,0.1632,0.1709,0.1713,0.1685,0.1722,0.1729,0.1742,0.1771,0.1777,0.1766,0.1768,0.1812,0.1817,0.1821,0.1908,0.1846,0.1848,0.1849,0.1965,0.1967,0.197,0,0,0,0,0,0,0.1633,0.1642,0.1707,0.1678,0.1688,0.1724,0.1738,0.1742,0.1778,0.1785,0.1791,0.1802,0.1812,0.1819,0.1873,0.1907,0.1849,0.185,0.1962,0.1966,0.1969,0.2023,0,0,0,0,0,0,0.163,0.164,0.1663,0.1679,0.169,0.174,0.1738,0.1743,0.1787,0.179,0.1817,0.1822,0.1813,0.187,0.1875,0.1908,0.1852,0.196,0.1964,0.1968,0.2019,0.2028,0.2036,0,0,0,0,0,0.1625,0.1651,0.1663,0.1674,0.1716,0.1741,0.1746,0.177,0.1789,0.1804,0.1835,0.1823,0.1898,0.1874,0.1878,0.1913,0.1958,0.1963,0.1967,0.2015,0.2026,0.2035,0,0,0,0,0,0,0.1625,0.1657,0.167,0.1708,0.1733,0.1748,0.1779,0.1792,0.1827,0.1847,0.1848,0.1855,0.1917,0.1912,0.1885,0.1961,0.1927,0.1932,0.1961,0.1972,0.198,0.198,0.1853,0,0,0,0,0,0.1634,0.1661,0.1688,0.1722,0.1742,0.1767,0.1788,0.1804,0.1834,0.1851,0.1872,0.1902,0.1933,0.1951,0.1974,0.2013,0.2021,0.2041,0.2049,0.2056,0.2062,0.21,0.2112,0.1985,0.1985,0.1985,0,0,0.1644,0.1669,0.1685,0.1725,0.1752,0.1778,0.1781,0.1827,0.1856,0.1853,0.1914,0.1938,0.1953,0.2,0.2026,0.2003,0.2102,0.2062,0.2068,0.207,0.2106,0.2118,0.2129,0.1988,0.1988,0.1987,0,0,0.1667,0.1705,0.1728,0.1752,0.1801,0.1816,0.1838,0.1875,0.1902,0.1956,0.1968,0.2014,0.2059,0.207,0.2082,0.2152,0.215,0.2169,0.2204,0.2242,0.2252,0.2261,0.2304,0.2316,0.2166,0.2166,0.2166,0,0.1681,0.1713,0.1741,0.1768,0.1798,0.1838,0.1868,0.1898,0.1948,0.1979,0.199,0.2077,0.2088,0.214,0.2166,0.217,0.2196,0.2161,0.2252,0.2261,0.2269,0.231,0.2323,0.2169,0.2169,0.2169,0.2168,0,0.1704,0.1744,0.1768,0.1812,0.1843,0.1884,0.1925,0.1973,0.2021,0.2046,0.2129,0.2152,0.2202,0.2215,0.2213,0.2281,0.2285,0.2261,0.2221,0.2285,0.2325,0.2337,0.2174,0.2173,0.2172,0.2171,0,0,0.1696,0.1768,0.1781,0.1807,0.1874,0.1897,0.1966,0.2025,0.2078,0.2136,0.22,0.2257,0.2283,0.23,0.2309,0.2336,0.242,0.2331,0.2331,0.2364,0.2522,0.2366,0.2364,0.2418,0.242,0.2421,0.2532,0,0.171,0.1763,0.18,0.1858,0.1887,0.1949,0.2001,0.2063,0.2129,0.22,0.2248,0.2316,0.2311,0.2352,0.2383,0.2416,0.2454,0.2393,0.2463,0.2465,0.231,0.2373,0.2428,0.2541,0.2544,0.2546,0.2547,0,0.1709,0.1748,0.1806,0.1878,0.19,0.1947,0.2049,0.2101,0.2204,0.2258,0.2338,0.2382,0.2459,0.2436,0.2533,0.2502,0.2525,0.2537,0.2541,0.238,0.233,0.2461,0.257,0.2568,0.2566,0.2565,0.2563,0,0.1665,0.1747,0.1797,0.1822,0.1911,0.1966,0.2027,0.2128,0.219,0.231,0.2378,0.2461,0.2534,0.2573,0.2623,0.2594,0.2714,0.2669,0.2551,0.2542,0.2625,0.2614,0.2732,0.2732,0.2731,0.2731,0.2731,0,0.164,0.1682,0.179,0.1813,0.1884,0.1954,0.2046,0.2121,0.2239,0.2308,0.2414,0.248,0.2576,0.2654,0.2665,0.2655,0.2758,0.257,0.2557,0.2649,0.2639,0.2635,0.2622,0.2735,0.2734,0.2733,0.2733,0,0.1574,0.1646,0.1706,0.182,0.1864,0.1916,0.2058,0.2115,0.2246,0.2347,0.2396,0.254,0.2625,0.2703,0.2777,0.2705,0.2706,0.2677,0.2802,0.2793,0.25,0.249,0.2543,0.2538,0.2534,0.2531,0.2528,0,0.1539,0.1566,0.17,0.1743,0.1806,0.1903,0.1964,0.2103,0.2162,0.2354,0.2384,0.2536,0.2607,0.2604,0.2681,0.27,0.2662,0.2657,0.2537,0.2498,0.2481,0.2477,0.2471,0.2522,0.2521,0.252,0.2519,0,0.147,0.1537,0.159,0.1683,0.1761,0.183,0.1932,0.1966,0.2115,0.2262,0.2319,0.2365,0.2458,0.2498,0.2548,0.2546,0.2647,0.2614,0.2621,0.2508,0.2473,0.2459,0.2459,0.2505,0.2507,0.2508,0.2509,0,0.1426,0.1446,0.1532,0.1598,0.1691,0.1724,0.1791,0.1857,0.1934,0.2134,0.2147,0.2296,0.2431,0.2422,0.2459,0.2455,0.2398,0.2306,0.2328,0.2344,0.2222,0.2145,0.2074,0,0,0,0,0,0.1366,0.1377,0.1435,0.1498,0.1585,0.1635,0.1751,0.1818,0.1967,0.1953,0.2043,0.2109,0.2161,0.2239,0.2191,0.2365,0.241,0.23,0.2315,0.2429,0.2445,0.2317,0,0,0,0,0,0,0.1323,0.1374,0.1393,0.1401,0.1423,0.1497,0.1561,0.1661,0.1659,0.1821,0.186,0.1985,0.2067,0.2167,0.2152,0.2175,0.2142,0.2394,0.2389,0.242,0.2434,0.2447,0.2321,0,0,0,0,0]},{"header":{"parameterUnit":"m.s-1","parameterCategory":2,"la1":30.2991,"la2":30.254,"lo1":-89.0895,"lo2":-89.0444,"dy":0.0017,"dx":0.0017,"nx":28,"ny":28,"refTime":"2025-01-01T03:00:00:Z","depth":"4","parameterNumber":3,"parameterNumberName":"V-component_of_CURRENTS"},"data":[0,0,0,0,0,0,0,0,0,0,0,0,0,0,0,0,0,0,0,0,0,0,0,0,0,0,0,0,0,0,0,0,0,0,0,0,0,0,0,0,0,0,0,0,0,0,0,0,0,0,0,0,0,0,0,0,0,0,0.0206,0.0206,0,0.0186,0.0186,0.0186,0.0181,0.0181,0.0181,0.0181,0.0151,0.015,0.0149,0,0,0,0,0,0,0,0,0,0,0,0,0,0.0222,0.0222,0.0206,0.0206,0.0205,0.0186,0.0186,0.0186,0.0181,0.0181,0.0181,0.0181,0.0151,0.015,0.0149,0,0,0,0,0,0,0,0,0,0,0,0,0,0.0212,0.0222,0.0206,0.0199,0.0198,0.0186,0.0186,0.0186,0.0181,0.0181,0.0181,0.0181,0.0151,0.015,0.0149,0.0143,0,0,0.0146,0.0145,0,0,0,0,0,0,0,0,0.0213,0.0212,0.0201,0.02,0.0198,0.0184,0.018,0.017,0.0181,0.019,0.0181,0.0181,0.016,0.0158,0.0157,0.0142,0.014,0.0145,0.0145,0.0144,0.0144,0,0,0,0,0,0,0,0.0213,0.0212,0.02,0.02,0.0199,0.0191,0.0189,0.0178,0.0177,0.0189,0.0188,0.0183,0.0159,0.0159,0.0157,0.014,0.0145,0.0144,0.0144,0.0143,0.0122,0.0122,0,0,0,0,0,0,0.0213,0.0213,0.0201,0.0199,0.0203,0.019,0.0189,0.0191,0.0177,0.0175,0.0183,0.0183,0.0161,0.0158,0.0155,0.0164,0.0144,0.0143,0.0143,0.0122,0.0122,0.0122,0,0,0,0,0,0,0.0213,0.0212,0.0201,0.0204,0.0201,0.019,0.0192,0.019,0.0191,0.0172,0.017,0.0186,0.016,0.0157,0.0148,0.0162,0.0143,0.0142,0.0122,0.0122,0.0122,0.017,0,0,0,0,0,0,0.0214,0.0213,0.0216,0.0204,0.0201,0.02,0.0191,0.019,0.0187,0.0186,0.0173,0.017,0.016,0.015,0.0147,0.016,0.0141,0.0122,0.0122,0.0122,0.0168,0.0171,0.0174,0,0,0,0,0,0.0215,0.0219,0.0217,0.0215,0.0206,0.02,0.0198,0.019,0.0187,0.0191,0.018,0.0171,0.015,0.0149,0.0146,0.0158,0.0121,0.0122,0.0122,0.0166,0.0171,0.0174,0,0,0,0,0,0,0.0226,0.0219,0.0216,0.0217,0.0211,0.0198,0.0198,0.0193,0.0188,0.0187,0.0172,0.0168,0.0166,0.0152,0.0152,0.0151,0.0134,0.0134,0.0169,0.0173,0.0176,0.0184,0.014,0,0,0,0,0,0.023,0.0236,0.0223,0.0226,0.0222,0.0211,0.0208,0.0204,0.0194,0.0193,0.0184,0.0172,0.0164,0.016,0.015,0.0149,0.0119,0.0153,0.0157,0.016,0.0163,0.0131,0.0132,0.0123,0.0123,0.0123,0,0,0.0234,0.0232,0.0234,0.023,0.0223,0.023,0.021,0.0207,0.0218,0.0189,0.02,0.0183,0.0165,0.0166,0.0164,0.0157,0.0144,0.016,0.0163,0.0164,0.0131,0.0132,0.0133,0.0123,0.0123,0.0123,0,0,0.025,0.0244,0.0256,0.0254,0.0247,0.0242,0.0242,0.0233,0.0232,0.0233,0.0218,0.0207,0.0196,0.0189,0.0183,0.0195,0.0161,0.0192,0.0218,0.0188,0.0188,0.0188,0.0141,0.0136,0.0196,0.0196,0.0196,0,0.0257,0.0273,0.0257,0.0269,0.0274,0.0251,0.0267,0.0262,0.0254,0.0256,0.0242,0.0225,0.0208,0.0212,0.0216,0.0204,0.0173,0.0208,0.0193,0.0192,0.0192,0.0143,0.0137,0.0198,0.0198,0.0198,0.0197,0,0.0282,0.0298,0.0303,0.0316,0.0318,0.0326,0.0316,0.0319,0.0311,0.0304,0.03,0.0272,0.0263,0.0255,0.024,0.0234,0.0207,0.02,0.0185,0.0195,0.0143,0.0136,0.0201,0.0201,0.02,0.0199,0,0,0.0294,0.0318,0.0322,0.0345,0.0346,0.0353,0.0365,0.0371,0.0384,0.0362,0.0372,0.0348,0.0326,0.0316,0.0292,0.0264,0.0227,0.0233,0.023,0.019,0.0143,0.0124,0.0114,0.0217,0.0216,0.0216,0.0104,0,0.0322,0.0364,0.0366,0.0409,0.043,0.0421,0.0439,0.044,0.0428,0.0429,0.0391,0.0388,0.0351,0.0347,0.0313,0.0253,0.0214,0.0257,0.0135,0.0131,0.0117,0.0108,0.0214,0.0099,0.0098,0.0096,0.0096,0,0.035,0.0378,0.0425,0.047,0.0477,0.0498,0.0522,0.0535,0.0522,0.051,0.0487,0.0455,0.0416,0.0381,0.0274,0.0303,0.0226,0.017,0.0165,0.0127,0.01,0.0088,0.0083,0.0084,0.0085,0.0086,0.0087,0,0.0374,0.0422,0.0466,0.048,0.0519,0.0541,0.0559,0.0561,0.0582,0.0559,0.0562,0.0502,0.0477,0.038,0.0263,0.0267,0.0133,0.0125,0.0029,0.0026,0.0056,0.0057,0.0042,0.0042,0.0042,0.0042,0.0043,0,0.0405,0.0443,0.0485,0.051,0.0571,0.0579,0.0632,0.0634,0.0644,0.0668,0.0608,0.0601,0.0476,0.0388,0.0273,0.0128,0.0136,0.0027,-0.0001,0.0076,0.0081,0.005,0.0053,0.0038,0.0039,0.004,0.0041,0,0.0425,0.0451,0.0509,0.0562,0.0586,0.0627,0.0691,0.0724,0.0721,0.0747,0.0744,0.0672,0.0551,0.0413,0.0246,0.0146,0.0008,-0.0048,0.0032,0.0011,-0.0087,-0.008,-0.0167,-0.0168,-0.0169,-0.0171,-0.0171,0,0.0438,0.047,0.0548,0.0589,0.0618,0.0683,0.0732,0.076,0.0792,0.0787,0.0799,0.0702,0.0632,0.0382,0.0226,-0.0005,-0.0035,-0.0119,-0.0094,-0.0087,-0.0107,-0.0098,-0.0091,-0.0174,-0.0174,-0.0174,-0.0175,0,0.0463,0.0491,0.054,0.0625,0.0687,0.0761,0.0825,0.0855,0.0881,0.0886,0.084,0.0714,0.0573,0.0381,0.0198,0.0035,-0.0068,-0.0133,-0.0131,-0.0109,-0.0097,-0.0113,-0.0104,-0.0179,-0.0179,-0.0178,-0.0178,0,0.0481,0.0517,0.058,0.0656,0.0737,0.0805,0.0843,0.0878,0.091,0.0902,0.0882,0.0732,0.0649,0.04,0.0233,0.0069,0.0028,-0.0028,-0.0033,-0.003,0.0045,0.0082,0.0027,0,0,0,0,0,0.0495,0.0535,0.0606,0.0687,0.0767,0.0815,0.0892,0.0919,0.0947,0.0923,0.0905,0.0773,0.0525,0.0421,0.0253,0.0197,-0.0009,-0.0007,-0.0078,-0.0205,-0.0199,-0.0135,0,0,0,0,0,0,0.0502,0.0567,0.0602,0.0697,0.0756,0.0845,0.0895,0.0916,0.0903,0.0903,0.078,0.0722,0.0487,0.0624,0.0248,0.0198,0.0127,-0.0117,-0.0121,-0.0208,-0.0203,-0.0198,-0.0131,0,0,0,0,0]}]]